Tracking 20721 objects as of 1-Jun-2020
HD Live streaming from Space Station
objects crossing your sky now

FENGYUN 1C DEB

Track FENGYUN 1C DEB now!
10-day predictions


NORAD ID: 37064
Int'l Code: 1999-025EEY
Perigee: 832.0 km
Apogee: 1,033.8 km
Inclination: 98.9 °
Period: 103.5 minutes
Semi major axis: 7303 km
RCS: 0.0093 m2 (small)
Launch date: May 10, 1999
Source: People's Republic of China (PRC)
Launch site: Taiyaun Space Center, China (TSC)

Note: This is SATELLITE DEBRIS
aabbcc
Your satellite tracking list
Your tracking list is empty




NASA's NSSDC Master Catalog

Two Line Element Set (TLE):
1 37064U 99025EEY 20138.98706927  .00000900  00000-0  69763-3 0  9990
2 37064  98.9017 317.2057 0138183 325.6610  33.5676 13.90820072546005
Source of the keplerian elements: AFSPC